sat.trackr.live / text

‹ back to catalog

STARLINK-3292

NORAD 50174 · 2021-125U

PAYLOAD ACTIVE UNKNOWN

§ Identity

Operator
Country
US
Launch date
2021-12-18
Launch site
AFWTR
Launch vehicle
Mass (kg)
RCS (m²)

Purposes: comms

External: N2YO · Heavens-Above · Gunter

§ Orbital elements

Epoch: 2026-09-12T23:58:05.623680Z

Period
93.85 min
Inclination
53.1588°
Eccentricity
0.0001020
Mean motion
15.34390100 rev/d
Perigee alt
462.0 km
Apogee alt
463.4 km
Semi-major
6,840.9 km
B*
3.7682e-5
RAAN
108.6234°
Arg perigee
91.2221°
Mean anomaly
268.8898°
Rev number
26,519

§ Raw data

STARLINK-32921 50174U 21125U   26255.99867620  .00000897  00000+0  37682-4 0  99982 50174  53.1588 108.6234 0001020  91.2221 268.8898 15.34390100265191

JSON: /api/v1/satellites/50174 · /tle

For live sub-satellite position, see the globe view (requires WebGL).

§ Visibility from observer

Set your observer location to see the next 7 days of passes ≥ 10°. The values pass through the URL so the page stays shareable.

No JS? Fill the form by hand. The geolocation button needs JavaScript.